Content
SEND FEEDBACK

Daily
Averages
Monthly
Summary
United States of America

YELLOWSTONE NATIONAL PARK, WYOMING


Home > North America > United States > Wyoming
Elevation: 7938 feet     Latitude: 44 34N     Longitude: 110 24W

WEATHER
 
SELECT A DAY
Number of Records: 295,189;   Date Range: 1/1/95 - 7/7/14
 
SHARE

PRINT THIS DATA

[ ← Previous Day ]
WEATHER ALMANAC - SEPTEMBER 21, 2013
[ Next Day → ]
[ °C ]   °F
Weather ElementAverageHighLow
Temperature46.1 °F64.9 °F (2:56 pm)30 °F (3:56 am)
Dewpoint32.3 °F39.9 °F (10:56 am)27 °F (5:56 pm)
Humidity66.2 %96 % (2:56 am)26 % (2:56 pm)
Barometer29.87 in30.01 in (7:56 am)29.69 in (11:56 pm)
Wind Speed2.4 mph8.1 mph (2:56 pm)
Wind Gust20.7 mph (2:56 pm)
Weather ElementAverage
Wind DirectionENE (77.4 °)

Weather ElementTotal
Precipitation---
Heating Degree Days17.6 (Base 65)
Averaged from 23 records on September 21, 2013
WEATHER CONDITIONS BREAKOUT
WIND DIRECTION BREAKOUT
WEATHER BY HOUR - SEPTEMBER 21, 2013
[ °C ]   °F
Local TimeTemperatureDewpointHumidityBarometerVisibilityWind DirectionWind SpeedGust SpeedPrecipitationEventsConditions
1:56 AM32.0 °F30.0 °F92 %29.98 inNW (320°)3.5 mph
2:56 AM30.9 °F30.0 °F96 %29.97 inWNW (300°)3.5 mph
3:56 AM30.0 °F28.9 °F96 %29.96 inCalm
4:56 AM30.9 °F30.0 °F96 %29.95 inCalm
5:56 AM30.9 °F30.0 °F96 %29.93 inCalm
6:56 AM30.0 °F28.9 °F96 %29.98 inNW (320°)3.5 mph
7:56 AM32.0 °F30.0 °F92 %30.01 inCalm
8:56 AM42.1 °F37.9 °F85 %29.96 inCalm
9:56 AM53.1 °F37.0 °F55 %29.94 inCalm
10:56 AM55.9 °F39.9 °F55 %29.92 inVariable4.6 mph
11:56 AM60.1 °F36.0 °F41 %29.89 inVariable3.5 mph
12:56 PM62.1 °F30.0 °F30 %29.86 inVariable5.8 mph
1:56 PM63.0 °F28.9 °F28 %29.83 inVariable5.8 mph
2:56 PM64.9 °F28.9 °F26 %29.81 inSW (220°)8.1 mph20.7 mph
3:56 PM64.9 °F32.0 °F29 %29.78 inCalm
4:56 PM60.1 °F30.0 °F32 %29.78 inVariable4.6 mph
5:56 PM63.0 °F27.0 °F26 %29.76 inVariable4.6 mph
6:56 PM52.0 °F37.0 °F57 %29.81 inCalm
7:56 PM45.0 °F37.9 °F76 %29.82 inCalm
8:56 PM42.1 °F35.1 °F76 %29.81 inCalm
9:56 PM39.9 °F33.1 °F77 %29.75 inCalm
10:56 PM37.9 °F33.1 °F83 %29.73 inNW (310°)3.5 mph
11:56 PM37.0 °F32.0 °F82 %29.69 inNW (310°)3.5 mph
Hourly data recorded from KP60, located miles away from Yellowstone National Park, Wyoming







STORIES FROM OUR PARTNERS